Flag for Germany Weather past 2 weeks in Hof (Saale), Bavaria, Germany

Now
31 °F

Snow. Low clouds.


Feels Like: 25 °F
Forecast: 26 / 31 °F
Wind: 6 mph from South

Location: Hof

Current Time: Jan 30, 2015 at 2:08:51 AM

Latest Report: Jan 30, 2015 at 1:00 AM


Visibility: 1 mi

Pressure: 28.82 "Hg

Humidity: 100%

Dew point: 31 °F

Location of Hof (Saale)Location

Historic Weather in Hof (Saale) — Graph

°F

Hof (Saale) temperature yesterday

Maximum temperature yesterday: 32 °F (at 1:00 AM)
Minimum temperature yesterday: 28 °F (at 8:00 AM)
Average temperature yesterday: 30 °F

Past Weeks' High & Low Weather Summary

 TemperatureHumidityPressure
High42 °F (Jan 16, 1:00 PM)100% (Jan 17, 2:00 PM)30.37 "Hg (Jan 17, 2:00 PM)
Low26 °F (Jan 23, 11:00 AM)61% (Jan 16, 2:00 AM)28.82 "Hg (Jan 30, 1:00 AM)
Average31 °F93%29.97 "Hg
* Reported Jan 15 1:00 AM — Jan 30 1:00 AM, Hof (Saale), Weather by CustomWeather, © 2014

Note: Actual official high and low records may vary slightly from our data, if they occured in-between our weather recording intervals... More about our weather records

Advertising

Hof (Saale) weather history for previous 24 hours

 ConditionsComfort  
Time TempWeatherWind HumidityBarometerVisibility
1:00 AM
Jan 30
31 °FSnow. Low clouds.6 mph100%28.82 "Hg1 mi
12:00 AM31 °FLight snow. Low clouds.6 mph100%28.85 "Hg1 mi
11:00 PM
Jan 29
31 °FLight snow. Low clouds.6 mph98%28.88 "Hg1 mi
9:00 PM31 °FLight snow. Low clouds.5 mph100%29.00 "Hg1 mi
8:00 PM31 °FLight snow. Overcast.5 mph92%29.03 "Hg17 mi
7:00 PM31 °FOvercast.6 mph91%29.09 "Hg16 mi
6:00 PM31 °FLight snow. Low clouds.5 mph95%29.12 "Hg12 mi
5:00 PM30 °FLight snow. Low clouds.5 mph100%29.18 "Hg2 mi
3:00 PM30 °FLight snow. Low clouds.5 mph96%29.23 "Hg2 mi
2:00 PM30 °FLight snow. Low clouds.6 mph91%29.26 "Hg3 mi
1:00 PM30 °FLight snow. Low clouds.7 mph91%29.32 "Hg2 mi
12:00 PM30 °FLight snow. Low clouds.6 mph91%29.35 "Hg6 mi
11:00 AM29 °FSnow flurries. Overcast.7 mph86%29.41 "Hg25 mi
10:00 AM29 °FOvercast.7 mph84%29.44 "Hg25 mi
9:00 AM28 °FPartly sunny.7 mph86%29.44 "Hg22 mi
8:00 AM28 °FScattered clouds.5 mph85%29.47 "Hg19 mi
7:00 AM29 °FOvercast.5 mph85%29.47 "Hg22 mi
6:00 AM29 °FSnow flurries. Passing clouds.7 mph86%29.47 "Hg19 mi
5:00 AM29 °FOvercast.5 mph87%29.47 "Hg19 mi
4:00 AM29 °FPassing clouds.5 mph89%29.47 "Hg22 mi
3:00 AM30 °FLow clouds.6 mph90%29.47 "Hg31 mi
2:00 AM32 °FLight snow. Low clouds.5 mph98%29.44 "Hg1 mi
Weather by CustomWeather, © 2014

See weather overviewHow to use our weather pages